COSMOS 2251 DEB, 40808

Orbit data source: Space-Track

COSMOS 2251 DEB, 40808 is space debris in LEO originally from a launch on Wed, 16 Jun 1993 UTC launched from the Plesetsk Missile And Space Complex (PKMTR). The debris from Iridium 33, an American commercial communications satellite, has been tracked extensively since its accidental collision with the defunct Russian satellite Cosmos 2251 in 2009. This event, occurring at high speed in low Earth orbit (LEO), generated thousands of pieces of space debris, significantly increasing the risk of further collisions. The Iridium 33 debris cloud has impacted space traffic management and orbital debris mitigation strategies, making it a subject of ongoing study in space situational awareness.

Loading next visibility...
Identifier
40808, 1993-036BWM
Orbit
LEO
Country
Flag of CISCIS
Related business
Manufacturer
Unknown
Mission
Spacecraft
Bus & Motor
Unknown
Mass
Unknown
Launch date (UTC)
1993-06-16 (33 years ago)
Launch vehicle
Unknown
Launch site
Plesetsk Missile And Space Complex (PKMTR)
Object type
Payload
Rocket body
Debris
Shape & HBR
Unknown shape, 0.1 m
Radar Cross Section
Small (<0.1 m²)

Expand to show TLE details & history
Last TLE update: 1 day ago

TLE from 1 day ago
0 COSMOS 2251 DEB
1 40808U 93036BWM 26144.57651008  .00004256  00000-0  70947-3 0  9997
2 40808  74.0405 190.3244 0008365 201.8110 309.3758 14.70292227660104
Epoch: 2026-05-24T13:50Z
TLE epoch observation values (Epoch: 2026-05-24T13:50:10.470Z)
Latitude
27.72493°
Longitude
-87.99325°
Altitude
659.522 km
Speed
7.532 km/s
True Right ascension
00h 06m 54s
True Declination
27° 34' 54"
Sunlit
Object was in daylight at epoch
Visualization orbit readout
Latitude
Unknown
Longitude
Unknown
Altitude
Unknown
Speed
Unknown
Apparent Right ascension
Unknown
Apparent Declination
Unknown
Sunlit
N/A
Visualization observer readout
Local Sidereal Time
05:06:21
Azimuth
Unknown
Elevation
Unknown
Doppler factor
Unknown
Orbital elements
Apogee altitude
663.607 km
Perigee altitude
651.836 km
Semi-major axis
7,035.858 km
Eccentricity
0.00084
Inclination
74.0405°
RAAN
190.3244°
Arg. of periapsis
201.811°
True anomaly
309.30165°
Mean anomaly
309.3758°
Eccentric anomaly
309.33873°
Mean motion
3.67763 °/min
Orbital period
97.89 mins
BSTAR
0.00070947

Documentation

Showing up to 5 results
|